This demonstration page uses our WeatherBlox Daily Observations layout. Learn more.

Left ArrowRight Arrow

Hourly Observations for March 31, 2022

Temp ( °F °C ) Dew Point ( °F °C ) Humidity (%) Winds ( mph kmh ) Pressure ( in mb ) Visibility ( mi km ) Precip ( " mm )
12:25 am 00:25 Cloudy 37 2.8 34 1.1 89 89 W 15 24 29.66 1004 9 14 0.00 0.00
12:52 am 00:52 Cloudy 37 2.8 34 1.1 89 89 W 13 20 29.63 1003 10 16 0.00 0.00
1:01 am 01:01 Cloudy 37 2.8 34 1.1 89 89 W 14 22 29.67 1005 10 16 0.00 0.00
1:52 am 01:52 Cloudy 37 2.8 34 1.1 89 89 W 13 20 29.64 1004 10 16 0.00 0.00
2:52 am 02:52 Cloudy 37 2.8 33 0.6 86 86 W 13 20 29.64 1004 10 16 0.00 0.00
3:52 am 03:52 Cloudy 37 2.8 33 0.6 86 86 WNW 12 19 29.64 1004 10 16 0.00 0.00
4:27 am 04:27 Cloudy 37 2.8 32 0 82 82 WNW 10 17 29.68 1005 10 16 0.00 0.00
4:38 am 04:38 Cloudy 37 2.8 32 0 82 82 WNW 10 17 29.69 1005 10 16 0.00 0.00
4:52 am 04:52 Cloudy 37 2.8 32 0 82 82 WNW 10 17 29.65 1004 10 16 0.00 0.00
5:52 am 05:52 Cloudy 37 2.8 32 0 82 82 WNW 9 15 29.66 1004 10 16 0.00 0.00
6:19 am 06:19 Cloudy 37 2.8 31 -0.6 79 79 WNW 9 15 29.70 1006 10 16 0.00 0.00
6:52 am 06:52 Cloudy 36 2.2 30 -1.1 79 79 WNW 9 15 29.69 1005 10 16 0.00 0.00
7:52 am 07:52 Cloudy 36 2.2 30 -1.1 79 79 W 12 19 29.71 1006 10 16 0.00 0.00
8:52 am 08:52 Cloudy 37 2.8 30 -1.1 76 76 WNW 10 17 29.72 1007 10 16 0.00 0.00
9:28 am 09:28 Cloudy 37 2.8 29 -1.7 73 73 WNW 15 24 29.77 1008 10 16 0.00 0.00
9:48 am 09:48 Cloudy 37 3 28 -2 70 70 WNW 10 17 29.77 1008 10 16 0.00 0.00
9:52 am 09:52 Cloudy 37 2.8 29 -1.7 73 73 WNW 9 15 29.74 1007 10 16 0.00 0.00
10:35 am 10:35 Cloudy 38 3.3 29 -1.7 70 70 WNW 10 17 29.79 1009 10 16 0.00 0.00
10:44 am 10:44 Cloudy 38 3.3 29 -1.7 70 70 WNW 13 20 29.79 1009 10 16 0.00 0.00
10:52 am 10:52 Cloudy 38 3.3 29 -1.7 70 70 WNW 13 20 29.76 1008 10 16 0.00 0.00
11:52 am 11:52 Cloudy 38 3.3 30 -1.1 73 73 W 14 22 29.77 1008 10 16 0.00 0.00
12:27 pm 12:27 Cloudy with Light Snow 37 2.8 31 -0.6 79 79 WNW 12 19 29.81 1009 9 14 0.00 0.00
12:42 pm 12:42 Cloudy with Light Snow 37 2.8 31 -0.6 79 79 W 12 19 29.82 1010 9 14 0.00 0.00
12:52 pm 12:52 Cloudy 38 3.3 31 -0.6 76 76 W 12 19 29.78 1009 10 16 0.00 0.00
1:13 pm 13:13 Cloudy with Light Snow 37 2.8 31 -0.6 79 79 W 14 22 29.82 1010 5 8 0.00 0.00
1:23 pm 13:23 Cloudy 37 2.8 30 -1.1 76 76 W 15 24 29.82 1010 10 16 0.00 0.00
1:39 pm 13:39 Cloudy with Light Rain 37 2.8 29 -1.7 73 73 WNW 13 20 29.83 1010 10 16 0.01 0.25
1:52 pm 13:52 Cloudy with Light Rain 37 2.8 29 -1.7 73 73 WNW 10 17 29.80 1009 10 16 0.01 0.25
2:21 pm 14:21 Cloudy 38 3.3 29 -1.7 70 70 NW 13 20 29.83 1010 10 16 0.00 0.00
2:31 pm 14:31 Cloudy with Light Snow 37 2.8 29 -1.7 73 73 WNW 13 20 29.83 1010 8 13 0.00 0.00
2:52 pm 14:52 Cloudy with Light Snow 36 2.2 31 -0.6 82 82 W 14 22 29.81 1010 5 8 0.00 0.00
3:52 pm 15:52 Cloudy 37 2.8 29 -1.7 73 73 WNW 14 22 29.82 1010 10 16 0.00 0.00
4:52 pm 16:52 Cloudy 37 2.8 29 -1.7 73 73 W 18 30 29.84 1011 10 16 0.00 0.00
5:52 pm 17:52 Cloudy 36 2.2 29 -1.7 76 76 W 15 24 29.87 1011 10 16 0.00 0.00
6:52 pm 18:52 Cloudy 36 2.2 29 -1.7 76 76 WNW 13 20 29.89 1012 10 16 0.00 0.00
7:52 pm 19:52 Cloudy 36 2.2 28 -2.2 73 73 W 7 11 29.91 1013 10 16 0.00 0.00
8:52 pm 20:52 Clear 33 0.6 27 -2.8 78 78 W 3 6 29.93 1014 10 16 0.00 0.00
9:52 pm 21:52 Clear 29 -1.7 25 -3.9 85 85 SW 5 7 29.95 1014 10 16 0.00 0.00
10:52 pm 22:52 Clear 28 -2.2 25 -3.9 88 88 S 5 7 29.96 1014 10 16 0.00 0.00
11:52 pm 23:52 Clear 29 -1.7 25 -3.9 85 85 SSW 5 7 29.97 1015 10 16 0.00 0.00

Powered by AerisWeather